Location: Bratislava
(48.1500°N, 17.1170°E)
Time: 08:15:21
(UTC+01:00)

ISS - Visible Passes

Search period start: 19 February 2019 00:00
Search period end: 01 March 2019 00:00
Orbit: 403 x 411 km, 51.6° (Epoch: 19 February)

Date Brightness Start Highest point End Pass type
(mag) Time Alt. Az. Time Alt. Az. Time Alt. Az.
22 Feb -0.5 05:51:49 10° SSE 05:52:35 11° SE 05:53:21 10° ESE visible
24 Feb -1.4 05:43:09 10° SSW 05:45:44 22° SE 05:48:21 10° E visible
25 Feb -1.0 04:52:44 10° SSE 04:54:26 13° SE 04:56:08 10° ESE visible
26 Feb -2.8 05:35:52 10° SW 05:38:59 43° SSE 05:42:07 10° ENE visible
27 Feb -2.1 04:46:29 22° S 04:47:34 27° SE 04:50:23 10° E visible
28 Feb -1.0 03:57:12 15° ESE 03:57:12 15° ESE 03:58:22 10° E visible
28 Feb -3.8 05:29:55 17° WSW 05:32:19 83° SSE 05:35:36 10° ENE visible
